Location: Carlisle
(34.5501°N, 84.5969°W)
Time: 20:42:44
(UTC+00:00)

FO-29 - Pass Details

Date: 10 April 2023
Orbit: 799 x 1322 km, 98.5° (Epoch: 08 June)

Event Time Altitude Azimuth Distance (km) Brightness Sun altitude
Rises 09:50:42 0° 20° (NNE) 4,060 13.4 -17.2°
Reaches altitude 10° 09:53:38 10° 27° (NNE) 3,019 12.8 -16.6°
Maximum altitude 10:00:00 41° 96° (E) 1,452 10.9 -15.4°
Drops below altitude 10° 10:05:37 10° 166° (SSE) 2,664 11.7 -14.3°
Sets 10:08:03 0° 173° (S) 3,538 12.3 -13.9°
